Probability
22 19 35 64 82 86 89 92 90 85 79 72 53 33 24 26 26 25 33 40 49 62 70 74 84 94 96 95 90 84 73 46 15 1 1 1 0 1 1 1 2 3 4
15 19 33 50 60 64 68 73 75 73 72 67 50 32 26 27 25 25 28 31 38 54 64 69 79 90 94 94 92 87 76 49 17 2 1 0 0 0 0 0 1 1 1
7 16 26 28 29 31 31 36 44 55 66 66 51 33 25 23 20 19 20 19 23 38 55 66 78 85 86 84 85 87 83 61 30 12 6 2 0 0 0 0 0 0 0
3 7 11 10 9 7 7 9 17 33 53 60 47 28 16 12 11 9 7 7 9 17 34 53 67 75 74 65 63 75 83 73 51 26 11 3 0 0 0 0 0 0 0
0 0 0 1 1 0 1 2 5 13 31 41 33 17 7 3 3 2 0 0 0 2 11 26 40 51 54 40 32 49 65 64 48 25 8 2 0 0 0 0 0 0 0
0 0 0 0 0 0 0 0 1 9 23 32 24 11 3 0 0 0 0 0 0 0 2 7 14 23 26 17 12 22 33 33 23 10 2 0 0 0 0 0 0 0 0
0 0 0 0 0 0 0 2 6 15 27 30 21 10 3 0 0 0 0 0 0 0 0 1 3 5 6 4 4 6 9 7 4 1 0 0 0 0 0 0 0 0 0
0 0 0 0 0 0 0 3 8 12 18 20 12 5 1 0 0 0 0 0 0 0 0 0 0 0 0 0 1 1 1 0 0 0 0 0 0 0 0 0 0 0 0
0 0 0 0 0 0 0 2 4 4 5 7 4 1 0 0 0 0 0 0 0 0 0 0 0 0 0 0 0 0 0 0 0 0 0 0 0 0 0 0 0 0 0
0 0 0 0 0 0 0 0 0 0 1 2 1 0 0 0 0 0 0 0 0 0 0 0 0 0 0 0 0 0 0 0 0 0 0 0 0 0 0 0 0 0 0
0 0 0 0 0 0 0 0 0 0 1 0 0 0 0 0 0 0 0 0 0 0 0 0 0 0 0 0 0 0 0 0 0 0 0 0 0 0 0 0 0 0 0
0 0 0 0 0 0 0 0 0 0 0 0 0 0 0 0 0 0 0 0 0 0 0 0 0 0 0 0 0 0 0 0 0 0 0 0 0 0 0 0 0 0 0
0 0 0 0 0 0 0 0 0 0 0 0 0 0 0 0 0 0 0 0 0 0 0 0 0 0 0 0 0 0 0 0 0 0 0 0 0 0 0 0 0 0 0
0 0 0 0 0 0 0 0 0 0 0 0 0 0 0 0 0 0 0 0 0 0 0 0 0 0 0 0 0 0 0 0 0 0 0 0 0 0 0 0 0 0 0
0 0 0 0 0 0 0 0 0 0 0 0 0 0 0 0 0 0 0 0 0 0 0 0 0 0 0 0 0 0 0 0 0 0 0 0 0 0 0 0 0 0 0
0 0 0 0 0 0 0 0 0 0 0 0 0 0 0 0 0 0 0 0 0 0 0 0 0 0 0 0 0 0 0 0 0 0 0 0 0 0 0 0 0 0 0
0 0 0 0 0 0 0 0 0 0 0 0 0 0 0 0 0 0 0 0 0 0 0 0 0 0 0 0 0 0 0 0 0 0 0 0 0 0 0 0 0 0 0
0 0 0 0 0 0 0 0 0 0 0 0 0 0 0 0 0 0 0 0 0 0 0 0 0 0 0 0 0 0 0 0 0 0 0 0 0 0 0 0 0 0 0
0 0 0 0 0 0 0 0 0 0 0 0 0 0 0 0 0 0 0 0 0 0 0 0 0 0 0 0 0 0 0 0 0 0 0 0 0 0 0 0 0 0 0
0 0 0 0 0 0 0 0 0 0 0 0 0 0 0 0 0 0 0 0 0 0 0 0 0 0 0 0 0 0 0 0 0 0 0 0 0 0 0 0 0 0 0
0 0 0 0 0 0 0 0 0 0 0 0 0 0 0 0 0 0 0 0 0 0 0 0 0 0 0 0 0 0 0 0 0 0 0 0 0 0 0 0 0 0 0
0 0 0 0 0 0 0 0 0 0 0 0 0 0 0 0 0 0 0 0 0 0 0 0 0 0 0 0 0 0 0 0 0 0 0 0 0 0 0 0 0 0 0
0 0 0 0 0 0 0 0 0 0 0 0 0 0 0 0 0 0 0 0 0 0 0 0 0 0 0 0 0 0 0 0 0 0 0 0 0 0 0 0 0 0 0
0 0 0 0 0 0 0 0 0 0 0 0 0 0 0 0 0 0 0 0 0 0 0 0 0 0 0 0 0 0 0 0 0 0 0 0 0 0 0 0 0 0 0
0 0 0 0 0 0 0 0 0 0 0 0 0 0 0 0 0 0 0 0 0 0 0 0 0 0 0 0 0 0 0 0 0 0 0 0 0 0 0 0 0 0 0
0 0 0 0 0 0 0 0 0 0 0 0 0 0 0 0 0 0 0 0 0 0 0 0 0 0 0 0 0 0 0 0 0 0 0 0 0 0 0 0 0 0 0
Wind_Speed
4 2 2 3 2 1 0 2 3 1 1 0 1 1 3 3 4 5 6 5 5 6 6 5 5 6 8 9 7 5 5 5 4 2 4 6 8 11 10 9 8 10 10
3 2 1 2 0 2 1 1 1 2 1 1 2 3 3 4 4 4 6 6 7 7 5 6 6 6 6 7 7 5 3 3 6 5 2 3 5 7 9 10 9 8 7
5 4 3 3 3 2 3 4 4 4 4 4 2 2 3 4 3 4 4 6 7 7 7 7 7 8 7 8 8 8 9 7 5 8 6 5 5 2 3 4 3 4 5
8 7 7 7 7 7 6 7 7 6 6 5 3 3 3 3 4 4 5 8 8 9 9 8 9 9 7 8 8 8 8 9 7 6 8 6 4 2 3 3 4 5 3
9 11 11 10 9 8 7 7 6 7 8 6 5 2 2 3 4 5 7 9 9 9 9 8 9 10 8 8 7 7 9 9 9 7 4 4 4 4 4 5 5 3 3
9 11 9 7 5 5 5 5 4 6 5 3 1 2 2 3 4 6 8 9 10 10 12 9 7 9 8 7 8 8 9 9 8 7 6 5 5 5 5 4 3 1 3
7 8 8 5 5 5 6 4 3 5 4 4 4 4 3 2 2 5 7 10 11 11 12 9 6 7 7 6 6 6 6 6 6 7 5 5 5 5 5 3 3 1 2
6 6 7 5 5 5 5 4 6 6 5 6 6 6 4 1 1 4 7 9 10 10 11 9 7 5 5 5 5 5 6 6 7 7 6 5 6 4 5 4 3 2 1
6 7 8 7 7 5 4 5 6 6 6 4 4 4 2 1 2 5 6 7 9 8 7 6 5 3 3 4 5 5 7 6 6 6 6 5 4 3 4 3 2 4 2
3 3 4 5 5 4 3 4 7 6 5 6 6 5 4 2 1 3 5 7 9 9 8 8 6 3 1 2 4 4 4 4 3 3 4 3 1 3 4 3 2 3 3
3 5 6 6 7 6 4 3 3 3 4 6 6 6 5 3 1 2 4 6 7 7 7 8 7 4 3 2 1 1 3 3 3 3 2 5 7 4 2 3 4 2 2
4 4 6 7 6 6 4 4 4 5 6 7 6 5 4 4 3 2 3 5 6 7 6 7 9 8 6 5 3 4 3 3 3 2 4 7 7 5 4 5 4 3 2
10 9 6 5 6 6 4 5 6 6 7 7 7 5 6 5 5 4 3 4 5 6 6 6 7 9 9 8 6 6 3 2 2 4 6 5 7 6 5 6 5 3 4
13 16 14 7 7 5 5 5 6 7 7 7 7 7 6 6 6 5 4 4 4 4 4 6 6 7 6 6 5 5 3 2 3 5 7 8 7 6 6 6 5 5 7
13 13 13 13 11 10 8 6 7 7 8 7 7 7 7 6 5 5 4 3 3 2 3 3 4 4 3 1 3 4 4 5 7 9 9 9 10 10 7 7 5 6 6
11 10 9 9 8 10 14 11 8 8 7 6 7 6 7 7 7 6 5 4 3 1 2 3 2 2 1 5 4 3 5 8 10 8 7 8 9 7 10 12 12 9 6
12 12 10 9 8 7 8 11 10 9 5 7 8 8 8 7 7 7 5 5 4 4 6 5 3 1 2 1 8 9 6 7 7 7 7 7 6 9 10 11 12 10 8
9 10 7 7 6 8 9 11 12 10 7 9 9 8 9 9 8 7 7 5 5 5 5 4 4 3 5 9 12 11 8 8 7 6 6 7 5 7 8 7 8 7 7
9 9 8 5 6 6 7 10 12 11 10 8 8 8 11 11 9 8 8 5 5 5 5 5 5 5 4 8 11 10 7 6 5 4 5 7 7 9 11 9 8 8 8
17 17 13 7 6 7 6 7 10 11 8 8 10 9 10 13 11 9 8 5 5 6 6 6 5 6 4 6 11 9 6 5 4 5 5 8 9 11 11 9 7 7 5
15 17 15 8 5 5 4 6 6 8 10 9 9 9 12 12 11 8 7 7 7 7 6 6 5 5 5 5 8 11 6 6 5 4 3 3 9 9 9 8 5 3 1
15 15 11 8 6 4 3 6 6 5 6 10 10 9 10 10 10 9 7 8 9 8 7 6 4 3 4 5 6 12 9 8 7 5 4 3 7 8 6 6 7 7 4
13 10 9 10 8 6 5 5 6 5 4 8 10 9 8 9 9 10 10 7 9 8 7 6 6 4 4 3 3 9 14 12 8 6 8 7 6 6 4 6 7 6 4
14 13 11 10 10 9 8 9 7 6 5 9 10 8 8 8 9 9 10 9 9 9 8 7 7 6 5 4 4 5 8 10 7 7 6 4 3 3 2 3 4 3 4
15 15 13 14 13 11 10 10 9 8 6 7 11 7 6 9 9 10 10 10 11 12 11 9 9 9 8 8 10 10 9 8 9 8 3 2 1 2 2 2 2 2 4
16 16 17 17 12 9 9 10 12 10 7 5 8 6 5 8 8 8 6 3 8 14 15 15 12 10 10 14 15 16 16 15 13 6 3 3 3 3 4 4 3 2 4
Wind_Direction
154 160 100 91 90 42 146 235 255 255 154 241 310 283 267 264 272 278 277 285 279 265 253 249 230 214 220 229 216 201 200 209 173 193 265 255 242 246 253 256 255 253 251
165 194 94 10 110 91 31 85 227 273 221 194 223 235 244 258 261 269 282 284 281 273 246 244 242 229 222 227 216 196 181 208 171 173 211 290 279 246 244 246 248 258 256
183 202 180 228 248 208 209 193 217 222 205 204 226 293 313 311 310 300 294 289 280 274 265 245 236 234 219 222 219 201 206 228 204 189 190 217 239 279 272 256 261 286 259
171 188 188 195 199 197 197 205 214 217 217 212 209 237 253 272 275 279 285 290 289 284 275 264 249 236 219 220 222 208 215 220 228 209 212 221 211 203 285 300 304 320 332
173 194 203 205 207 201 203 209 219 223 225 220 216 237 280 288 305 319 320 310 300 286 274 261 259 243 224 220 216 212 210 209 217 213 198 210 208 198 204 266 289 310 313
201 215 225 221 224 229 223 227 230 239 238 223 170 107 62 13 353 336 324 315 307 297 285 269 258 244 220 206 214 211 208 212 211 202 189 179 180 180 182 225 262 301 320
225 234 244 236 227 228 234 250 218 216 195 160 133 123 115 81 353 319 320 314 306 297 285 275 267 248 224 202 195 193 199 210 212 208 197 195 205 169 157 181 212 133 354
243 243 239 222 215 217 226 210 195 209 192 174 156 145 135 107 348 324 311 311 307 300 289 278 273 255 235 206 189 205 209 213 223 218 204 195 213 178 152 167 167 111 63
242 228 215 192 189 194 186 191 205 217 201 176 131 134 149 101 6 332 323 325 321 326 328 314 299 285 238 216 202 218 221 213 217 211 192 184 198 171 136 158 150 115 102
214 204 178 170 179 183 174 190 211 211 194 173 172 169 177 154 0 326 331 329 327 336 347 341 336 331 290 203 210 221 214 195 189 185 177 161 111 94 130 146 127 114 134
208 211 207 200 189 180 171 184 199 204 187 196 193 180 183 184 231 298 316 319 321 334 353 2 345 342 336 294 187 166 100 111 84 54 102 120 109 108 139 107 112 129 127
312 274 231 206 196 198 194 175 174 187 194 203 210 208 203 204 221 264 292 300 317 336 356 10 14 8 21 22 50 70 88 115 142 145 114 112 110 106 99 91 96 105 117
0 346 307 234 222 219 213 193 179 198 203 201 208 220 214 215 225 235 254 280 308 331 354 12 16 27 24 26 26 70 71 101 137 116 107 103 99 93 86 81 86 93 90
22 11 2 327 290 259 232 218 209 209 206 203 207 214 212 210 220 234 245 276 301 319 7 18 25 47 28 16 38 86 117 144 101 86 78 69 72 83 86 81 71 82 85
21 18 11 12 3 339 309 267 241 224 216 206 208 210 207 208 215 228 232 244 273 325 38 58 77 65 55 276 190 185 163 110 81 63 59 58 66 73 78 83 76 81 86
10 8 10 18 9 356 339 309 281 255 235 222 218 200 203 209 211 218 216 207 220 210 173 185 128 108 158 273 224 157 103 89 82 75 63 53 54 71 78 78 70 70 81
359 347 351 352 345 334 335 336 318 289 255 241 222 195 197 207 210 208 203 200 198 178 189 188 176 185 304 119 107 99 93 94 88 81 73 63 49 67 72 68 61 55 58
324 309 306 314 319 322 328 333 338 310 269 229 218 194 189 202 205 200 199 198 173 173 167 171 176 130 28 74 87 88 86 84 82 88 98 95 73 76 84 71 54 37 29
289 283 281 283 295 306 327 338 332 339 326 292 241 206 188 193 201 200 191 188 164 164 171 173 171 113 60 85 93 92 89 88 87 89 86 87 80 79 81 77 63 44 20
320 318 308 298 304 308 331 347 329 321 326 322 307 267 203 186 199 198 176 172 168 168 169 167 174 151 132 108 112 115 116 107 90 67 61 77 86 80 80 84 77 65 5
299 302 306 298 279 289 326 325 335 330 327 316 317 300 244 190 193 185 168 164 164 158 166 169 171 171 161 137 135 143 137 138 127 115 96 80 94 93 90 88 77 83 38
292 300 304 289 273 284 308 309 311 307 320 317 316 297 265 221 184 176 169 166 157 160 169 168 169 186 181 163 158 165 160 154 143 149 150 143 125 119 105 89 90 88 82
282 279 291 295 286 282 278 275 274 277 299 301 300 299 287 237 202 174 165 165 163 166 172 172 173 181 183 174 185 176 161 148 144 153 159 165 150 117 83 66 80 90 86
283 282 284 284 286 283 270 256 253 267 292 296 292 294 293 267 219 187 167 167 174 176 176 172 175 172 172 172 159 144 132 131 137 142 144 155 135 113 103 81 70 98 116
275 273 273 277 274 274 277 272 255 247 248 272 276 267 281 273 231 201 182 180 185 183 178 178 171 167 180 189 171 159 154 153 149 132 120 121 133 132 118 106 111 118 115
268 264 264 268 261 255 260 265 263 250 245 259 268 257 265 276 252 206 179 169 191 191 183 170 169 180 174 165 170 166 159 154 142 129 139 161 193 184 176 165 159 155 131